RYR2KQ GCLP-LOWW

Flight info

Callsign RYR2KQ
Flight time 4h 9m
Altitude 34000
Route KORAL UG5 SONSO DCT NIRAL/N0445F360 UN871 OSDAM UM985 BARPA M985 PIMOS DCT RIXUR DCT PEPAS DCT ARPEX DCT KOSEL DCT BUDIT DCT ETURA DCT TOSTO DCT OLPOS DCT BEGOX DCT LASPO DCT SOPET DCT DIKUT DCT TORDU DCT LOTOS DCT EBROX DCT PEXOT DCT RODRA DCT BCN DCT SALON DCT AGENA DCT BODEQ DCT LUMAS DCT NIBIK DCT NETUP DCT STP DCT RAPED DCT PIGOS DCT EKSID DCT NOSTA DCT EGHIN DCT DORAV DCT MISPO DCT OTKEK/N0441F370 DCT ARALD DCT ABTAN
Aircraft A320/M-SDE3FGHIRWY/LB1

Departure

Time 2026-04-20 13:52
Airport Gran Canaria Airport (GCLP)

Arrival

Time 2026-04-20 18:01
Airport Vienna International Airport (LOWW)
Time Latitude Longitude Altitude Speed Heading
2026-04-20 13:14 27.93899 -15.38804 85 ft 0 kts 291°
2026-04-20 13:43 27.93895 -15.38791 90 ft 4 kts 289°
2026-04-20 13:43 27.93887 -15.38762 88 ft 4 kts 281°
2026-04-20 13:43 27.93884 -15.38732 87 ft 4 kts 264°
2026-04-20 13:44 27.93891 -15.38707 86 ft 3 kts 207°
2026-04-20 13:44 27.93899 -15.38703 87 ft 0 kts 201°
2026-04-20 13:47 27.93871 -15.38715 85 ft 9 kts 201°
2026-04-20 13:47 27.93786 -15.38753 86 ft 15 kts 201°
2026-04-20 13:47 27.93680 -15.38799 84 ft 18 kts 200°
2026-04-20 13:47 27.93559 -15.38852 84 ft 20 kts 201°
2026-04-20 13:48 27.93438 -15.38832 84 ft 21 kts 118°
2026-04-20 13:48 27.93309 -15.38800 66 ft 24 kts 206°
2026-04-20 13:48 27.93150 -15.38875 71 ft 26 kts 201°
2026-04-20 13:48 27.92982 -15.38949 79 ft 26 kts 203°
2026-04-20 13:49 27.92813 -15.39025 83 ft 26 kts 201°
2026-04-20 13:49 27.92645 -15.39099 92 ft 26 kts 201°
2026-04-20 13:49 27.92478 -15.39171 94 ft 26 kts 201°
2026-04-20 13:49 27.92311 -15.39245 99 ft 26 kts 201°
2026-04-20 13:50 27.92138 -15.39321 97 ft 28 kts 199°
2026-04-20 13:50 27.91987 -15.39388 95 ft 8 kts 201°
2026-04-20 13:50 27.91954 -15.39399 93 ft 7 kts 188°
2026-04-20 13:50 27.91902 -15.39345 91 ft 15 kts 108°
2026-04-20 13:51 27.91940 -15.39215 85 ft 20 kts 45°
2026-04-20 13:51 27.92155 -15.39115 83 ft 60 kts 21°
2026-04-20 13:51 27.92743 -15.38855 66 ft 122 kts 21°
2026-04-20 13:51 27.93698 -15.38435 76 ft 169 kts 24°
2026-04-20 13:52 27.94769 -15.37959 754 ft 164 kts 24°
2026-04-20 13:52 27.95840 -15.37484 1349 ft 170 kts 21°
2026-04-20 13:52 27.97012 -15.36972 1618 ft 192 kts 21°
2026-04-20 13:52 27.98332 -15.36401 1862 ft 215 kts 21°
2026-04-20 13:53 27.99807 -15.35766 2157 ft 239 kts 20°
2026-04-20 13:53 28.01434 -15.35069 2605 ft 258 kts 20°
2026-04-20 13:53 28.03141 -15.34341 3290 ft 266 kts 19°
2026-04-20 13:53 28.04903 -15.33590 3936 ft 276 kts 20°
2026-04-20 13:54 28.06734 -15.32798 4536 ft 288 kts 20°
2026-04-20 13:54 28.08642 -15.31968 5136 ft 298 kts 21°
2026-04-20 13:54 28.10597 -15.31114 5819 ft 305 kts 21°
2026-04-20 13:54 28.12599 -15.30235 6466 ft 312 kts 24°
2026-04-20 13:55 28.14442 -15.28950 7075 ft 313 kts 48°
2026-04-20 13:55 28.15765 -15.27017 7728 ft 312 kts 62°
2026-04-20 13:55 28.16971 -15.24952 8413 ft 316 kts 62°
2026-04-20 13:55 28.18185 -15.22858 9095 ft 320 kts 62°
2026-04-20 13:56 28.19415 -15.20735 9751 ft 325 kts 61°
2026-04-20 13:56 28.20678 -15.18556 10117 ft 341 kts 61°
2026-04-20 13:56 28.22021 -15.16231 10253 ft 364 kts 60°
2026-04-20 13:56 28.23451 -15.13763 10380 ft 385 kts 60°
2026-04-20 13:57 28.24970 -15.11158 10495 ft 405 kts 60°
2026-04-20 13:57 28.26563 -15.08435 10622 ft 423 kts 59°
2026-04-20 13:57 28.28218 -15.05609 10893 ft 435 kts 59°
2026-04-20 13:57 28.29895 -15.02739 11398 ft 439 kts 59°
2026-04-20 13:58 28.31588 -14.99838 11954 ft 442 kts 59°
2026-04-20 13:58 28.33287 -14.96919 12519 ft 444 kts 59°
2026-04-20 13:58 28.34989 -14.93989 13082 ft 447 kts 59°
2026-04-20 13:58 28.36704 -14.91033 13656 ft 449 kts 58°
2026-04-20 13:59 28.38428 -14.88063 14144 ft 452 kts 58°
2026-04-20 13:59 28.40161 -14.85079 14616 ft 454 kts 58°
2026-04-20 13:59 28.41904 -14.82075 15075 ft 457 kts 58°
2026-04-20 13:59 28.43656 -14.79051 15533 ft 459 kts 58°
2026-04-20 14:00 28.45416 -14.76013 15970 ft 462 kts 58°
2026-04-20 14:00 28.47184 -14.72956 16412 ft 464 kts 58°
2026-04-20 14:00 28.48959 -14.69885 16827 ft 466 kts 58°
2026-04-20 14:00 28.50743 -14.66795 17243 ft 468 kts 58°
2026-04-20 14:01 28.52533 -14.63690 17655 ft 470 kts 57°
2026-04-20 14:01 28.54309 -14.60602 18049 ft 473 kts 57°
2026-04-20 14:01 28.56111 -14.57467 18390 ft 475 kts 57°
2026-04-20 14:01 28.57925 -14.54315 18707 ft 477 kts 57°
2026-04-20 14:02 28.59749 -14.51147 19014 ft 479 kts 57°
2026-04-20 14:02 28.61578 -14.47967 19313 ft 481 kts 57°
2026-04-20 14:02 28.63414 -14.44773 19615 ft 483 kts 57°
2026-04-20 14:02 28.65256 -14.41565 19892 ft 485 kts 57°
2026-04-20 14:03 28.67103 -14.38343 20186 ft 487 kts 57°
2026-04-20 14:03 28.68955 -14.35101 20433 ft 489 kts 57°
2026-04-20 14:03 28.70817 -14.31848 20693 ft 491 kts 57°
2026-04-20 14:03 28.72689 -14.28583 20953 ft 493 kts 57°
2026-04-20 14:04 28.74565 -14.25307 21205 ft 495 kts 57°
2026-04-20 14:04 28.76446 -14.22014 21449 ft 497 kts 57°
2026-04-20 14:04 28.78330 -14.18707 21690 ft 498 kts 57°
2026-04-20 14:04 28.80223 -14.15383 21916 ft 500 kts 57°
2026-04-20 14:05 28.82097 -14.12095 22138 ft 502 kts 57°
2026-04-20 14:05 28.84027 -14.08705 22369 ft 504 kts 57°
2026-04-20 14:05 28.85909 -14.05397 22583 ft 505 kts 58°
2026-04-20 14:05 28.87820 -14.02036 22792 ft 507 kts 57°
2026-04-20 14:06 28.89745 -13.98655 22994 ft 508 kts 57°
2026-04-20 14:06 28.91673 -13.95269 23180 ft 509 kts 58°
2026-04-20 14:06 28.93603 -13.91874 23353 ft 511 kts 58°
2026-04-20 14:06 28.95534 -13.88471 23561 ft 511 kts 58°
2026-04-20 14:07 28.97465 -13.85063 23776 ft 510 kts 58°
2026-04-20 14:07 28.99390 -13.81660 23988 ft 510 kts 58°
2026-04-20 14:07 29.01312 -13.78257 24214 ft 510 kts 58°
2026-04-20 14:07 29.03232 -13.74856 24445 ft 510 kts 58°
2026-04-20 14:08 29.05149 -13.71451 24689 ft 509 kts 58°
2026-04-20 14:08 29.07060 -13.68047 24923 ft 509 kts 58°
2026-04-20 14:08 29.08973 -13.64643 25161 ft 509 kts 58°
2026-04-20 14:08 29.10885 -13.61242 25416 ft 508 kts 58°
2026-04-20 14:09 29.12792 -13.57845 25668 ft 508 kts 58°
2026-04-20 14:09 29.14702 -13.54442 25916 ft 508 kts 57°
2026-04-20 14:09 29.16613 -13.51052 26176 ft 507 kts 57°
2026-04-20 14:09 29.18563 -13.47688 26443 ft 507 kts 56°
2026-04-20 14:10 29.20569 -13.44378 26692 ft 507 kts 54°
2026-04-20 14:10 29.22614 -13.41089 26943 ft 506 kts 54°
2026-04-20 14:10 29.24667 -13.37818 27209 ft 506 kts 54°
2026-04-20 14:10 29.26716 -13.34545 27465 ft 506 kts 54°
2026-04-20 14:11 29.28752 -13.31259 27724 ft 506 kts 54°
2026-04-20 14:11 29.30775 -13.27961 27996 ft 505 kts 55°
2026-04-20 14:11 29.32785 -13.24660 28258 ft 505 kts 55°
2026-04-20 14:11 29.34788 -13.21356 28528 ft 505 kts 55°
2026-04-20 14:12 29.36788 -13.18051 28792 ft 505 kts 55°
2026-04-20 14:12 29.38785 -13.14747 29071 ft 504 kts 55°
2026-04-20 14:12 29.40785 -13.11446 29342 ft 504 kts 55°
2026-04-20 14:12 29.42786 -13.08150 29617 ft 503 kts 55°
2026-04-20 14:13 29.44761 -13.04900 29885 ft 503 kts 54°
2026-04-20 14:13 29.46763 -13.01607 30125 ft 503 kts 54°
2026-04-20 14:13 29.48760 -12.98318 30354 ft 502 kts 54°
2026-04-20 14:13 29.50753 -12.95025 30576 ft 502 kts 55°
2026-04-20 14:14 29.52741 -12.91731 30805 ft 502 kts 55°
2026-04-20 14:14 29.54727 -12.88436 31027 ft 502 kts 54°
2026-04-20 14:14 29.56713 -12.85144 31247 ft 502 kts 54°
2026-04-20 14:14 29.58701 -12.81848 31480 ft 501 kts 54°
2026-04-20 14:15 29.60684 -12.78556 31698 ft 501 kts 54°
2026-04-20 14:15 29.62668 -12.75261 31924 ft 501 kts 54°
2026-04-20 14:15 29.64648 -12.71973 32148 ft 501 kts 54°
2026-04-20 14:15 29.66630 -12.68679 32369 ft 500 kts 54°
2026-04-20 14:16 29.68609 -12.65386 32588 ft 500 kts 54°
2026-04-20 14:16 29.70073 -12.62952 32747 ft 500 kts 54°
2026-04-20 14:16 29.72066 -12.59643 32971 ft 500 kts 54°
2026-04-20 14:16 29.74043 -12.56351 33187 ft 500 kts 54°
2026-04-20 14:17 29.76006 -12.53056 33399 ft 500 kts 55°
2026-04-20 14:17 29.77302 -12.50867 33540 ft 499 kts 55°
2026-04-20 14:17 29.79911 -12.46435 33804 ft 500 kts 55°
2026-04-20 14:17 29.81861 -12.43116 33855 ft 503 kts 55°
2026-04-20 14:18 29.85135 -12.37558 33855 ft 506 kts 55°
2026-04-20 14:18 29.89746 -12.29754 33853 ft 507 kts 55°
2026-04-20 14:19 29.93705 -12.23022 33854 ft 507 kts 55°
2026-04-20 14:19 29.97655 -12.16292 33849 ft 507 kts 55°
2026-04-20 14:20 30.01009 -12.10747 33849 ft 506 kts 49°
2026-04-20 14:20 30.05909 -12.04966 33847 ft 504 kts 42°
2026-04-20 14:21 30.10951 -11.99344 33845 ft 504 kts 42°
2026-04-20 14:21 30.15986 -11.93707 33845 ft 504 kts 42°
2026-04-20 14:22 30.21009 -11.88050 33841 ft 504 kts 42°
2026-04-20 14:22 30.26035 -11.82392 33839 ft 504 kts 42°
2026-04-20 14:23 30.31068 -11.76735 33839 ft 504 kts 42°
2026-04-20 14:23 30.36095 -11.71067 33837 ft 505 kts 42°
2026-04-20 14:24 30.41120 -11.65395 33835 ft 505 kts 42°
2026-04-20 14:24 30.46143 -11.59724 33829 ft 505 kts 42°
2026-04-20 14:25 30.51178 -11.54034 33834 ft 505 kts 42°
2026-04-20 14:25 30.56190 -11.48340 33835 ft 505 kts 43°
2026-04-20 14:26 30.61211 -11.42638 33829 ft 505 kts 42°
2026-04-20 14:26 30.66226 -11.36924 33839 ft 505 kts 43°
2026-04-20 14:27 30.71248 -11.31207 33839 ft 505 kts 42°
2026-04-20 14:27 30.76260 -11.25509 33834 ft 505 kts 43°
2026-04-20 14:28 30.81272 -11.19787 33838 ft 505 kts 43°
2026-04-20 14:28 30.86265 -11.14064 33824 ft 504 kts 43°
2026-04-20 14:29 30.91271 -11.08327 33833 ft 504 kts 43°
2026-04-20 14:29 30.96272 -11.02589 33824 ft 504 kts 43°
2026-04-20 14:30 31.01261 -10.96853 33832 ft 504 kts 43°
2026-04-20 14:30 31.06257 -10.91102 33818 ft 504 kts 43°
2026-04-20 14:31 31.11243 -10.85346 33835 ft 504 kts 43°
2026-04-20 14:31 31.16257 -10.79548 33832 ft 504 kts 43°
2026-04-20 14:32 31.21242 -10.73788 33834 ft 504 kts 43°
2026-04-20 14:32 31.26220 -10.68024 33826 ft 504 kts 43°
2026-04-20 14:33 31.31191 -10.62254 33828 ft 503 kts 43°
2026-04-20 14:33 31.36158 -10.56482 33821 ft 503 kts 43°
2026-04-20 14:34 31.41111 -10.50717 33825 ft 503 kts 43°
2026-04-20 14:34 31.46070 -10.44926 33823 ft 502 kts 43°
2026-04-20 14:35 31.51013 -10.39151 33825 ft 502 kts 43°
2026-04-20 14:35 31.55955 -10.33368 33826 ft 502 kts 43°
2026-04-20 14:36 31.60892 -10.27585 33823 ft 501 kts 43°
2026-04-20 14:36 31.65828 -10.21802 33822 ft 501 kts 43°
2026-04-20 14:37 31.70746 -10.16019 33810 ft 500 kts 44°
2026-04-20 14:37 31.75660 -10.10225 33822 ft 500 kts 43°
2026-04-20 14:38 31.80572 -10.04436 33818 ft 500 kts 44°
2026-04-20 14:38 31.85475 -9.98648 33827 ft 499 kts 44°
2026-04-20 14:39 31.90376 -9.92863 33821 ft 499 kts 44°
2026-04-20 14:39 31.95225 -9.87111 33829 ft 499 kts 44°
2026-04-20 14:40 32.00112 -9.81305 33830 ft 498 kts 44°
2026-04-20 14:40 32.04989 -9.75508 33827 ft 498 kts 44°
2026-04-20 14:41 32.09865 -9.69714 33819 ft 498 kts 44°
2026-04-20 14:41 32.14736 -9.63900 33825 ft 498 kts 44°
2026-04-20 14:42 32.19610 -9.58078 33826 ft 498 kts 44°
2026-04-20 14:42 32.24465 -9.52266 33838 ft 497 kts 44°
2026-04-20 14:43 32.29327 -9.46444 33832 ft 497 kts 44°
2026-04-20 14:43 32.34173 -9.40636 33831 ft 496 kts 44°
2026-04-20 14:44 32.38959 -9.34884 33835 ft 496 kts 44°
2026-04-20 14:44 32.43786 -9.29065 33834 ft 496 kts 44°
2026-04-20 14:45 32.48615 -9.23237 33843 ft 496 kts 44°
2026-04-20 14:45 32.53439 -9.17409 33846 ft 495 kts 44°
2026-04-20 14:46 32.58257 -9.11586 33834 ft 494 kts 44°
2026-04-20 14:46 32.63072 -9.05754 33846 ft 494 kts 44°
2026-04-20 14:47 32.67867 -8.99934 33840 ft 493 kts 44°
2026-04-20 14:48 32.75048 -8.91201 33845 ft 492 kts 44°
2026-04-20 14:48 32.79833 -8.85370 33843 ft 492 kts 44°
2026-04-20 14:49 32.84603 -8.79542 33849 ft 491 kts 44°
2026-04-20 14:49 32.89394 -8.73692 33848 ft 491 kts 44°
2026-04-20 14:50 32.94121 -8.67897 33842 ft 490 kts 44°
2026-04-20 14:50 32.98899 -8.62026 33844 ft 490 kts 44°
2026-04-20 14:51 33.03642 -8.56199 33840 ft 489 kts 44°
2026-04-20 14:51 33.08374 -8.50381 33841 ft 489 kts 44°
2026-04-20 14:52 33.13107 -8.44543 33838 ft 489 kts 45°
2026-04-20 14:52 33.17798 -8.38749 33838 ft 488 kts 43°
2026-04-20 14:53 33.23210 -8.33866 33840 ft 484 kts 30°
2026-04-20 14:53 33.28915 -8.29596 33841 ft 484 kts 30°
2026-04-20 14:54 33.34596 -8.25306 33839 ft 484 kts 30°
2026-04-20 14:54 33.40285 -8.20998 33844 ft 483 kts 30°
2026-04-20 14:55 33.45974 -8.16694 33840 ft 483 kts 30°
2026-04-20 14:55 33.51655 -8.12399 33838 ft 483 kts 30°
2026-04-20 14:56 33.57339 -8.08090 33845 ft 483 kts 31°
2026-04-20 14:56 33.63013 -8.03783 33846 ft 483 kts 31°
2026-04-20 14:57 33.68685 -7.99472 33842 ft 483 kts 31°
2026-04-20 14:57 33.74363 -7.95143 33839 ft 483 kts 31°
2026-04-20 14:58 33.79077 -7.91542 33844 ft 483 kts 31°
2026-04-20 14:58 33.84741 -7.87206 33846 ft 483 kts 31°
2026-04-20 14:59 33.90408 -7.82862 33848 ft 482 kts 31°
2026-04-20 14:59 33.96064 -7.78523 33850 ft 482 kts 31°
2026-04-20 15:00 34.01731 -7.74184 33852 ft 482 kts 31°
2026-04-20 15:00 34.07390 -7.69842 33851 ft 482 kts 31°
2026-04-20 15:01 34.13037 -7.65482 33851 ft 482 kts 31°
2026-04-20 15:01 34.18684 -7.61125 33849 ft 482 kts 31°
2026-04-20 15:02 34.24337 -7.56760 33855 ft 482 kts 31°
2026-04-20 15:02 34.29977 -7.52386 33858 ft 482 kts 31°
2026-04-20 15:03 34.35652 -7.47983 33857 ft 481 kts 31°
2026-04-20 15:03 34.41258 -7.43641 33862 ft 481 kts 31°
2026-04-20 15:04 34.46893 -7.39275 33868 ft 481 kts 31°
2026-04-20 15:04 34.52529 -7.34888 33861 ft 481 kts 31°
2026-04-20 15:05 34.58158 -7.30488 33862 ft 481 kts 31°
2026-04-20 15:05 34.63776 -7.26082 33864 ft 481 kts 31°
2026-04-20 15:06 34.69398 -7.21678 33870 ft 480 kts 31°
2026-04-20 15:06 34.75015 -7.17273 33875 ft 480 kts 31°
2026-04-20 15:07 34.80626 -7.12875 33873 ft 480 kts 31°
2026-04-20 15:07 34.86237 -7.08462 33875 ft 480 kts 31°
2026-04-20 15:08 34.91834 -7.04049 33873 ft 479 kts 31°
2026-04-20 15:08 34.97431 -6.99623 33883 ft 479 kts 31°
2026-04-20 15:09 35.03026 -6.95202 33883 ft 479 kts 31°
2026-04-20 15:09 35.08619 -6.90784 33883 ft 479 kts 31°
2026-04-20 15:10 35.14200 -6.86360 33880 ft 478 kts 31°
2026-04-20 15:10 35.19777 -6.81932 33882 ft 478 kts 31°
2026-04-20 15:11 35.25355 -6.77487 33874 ft 478 kts 32°
2026-04-20 15:11 35.30919 -6.73008 33879 ft 478 kts 35°
2026-04-20 15:12 35.35692 -6.67345 33868 ft 480 kts 52°
2026-04-20 15:12 35.39211 -6.60391 33865 ft 480 kts 59°
2026-04-20 15:13 35.42578 -6.53320 33864 ft 480 kts 59°
2026-04-20 15:13 35.45977 -6.46256 33857 ft 480 kts 58°
2026-04-20 15:14 35.49507 -6.39299 33861 ft 480 kts 57°
2026-04-20 15:14 35.53072 -6.32388 33861 ft 480 kts 57°
2026-04-20 15:15 35.56620 -6.25424 33865 ft 480 kts 58°
2026-04-20 15:15 35.60133 -6.18447 33877 ft 480 kts 58°
2026-04-20 15:16 35.63639 -6.11461 33886 ft 480 kts 58°
2026-04-20 15:16 35.67145 -6.04481 33891 ft 480 kts 58°
2026-04-20 15:17 35.70642 -5.97493 33895 ft 479 kts 58°
2026-04-20 15:17 35.74015 -5.90422 33893 ft 479 kts 64°
2026-04-20 15:18 35.76911 -5.83035 33892 ft 479 kts 64°
2026-04-20 15:18 35.79815 -5.75643 33897 ft 479 kts 64°
2026-04-20 15:19 35.82724 -5.68257 33907 ft 479 kts 64°
2026-04-20 15:19 35.85599 -5.61029 33943 ft 479 kts 63°
2026-04-20 15:20 35.88578 -5.53699 33963 ft 478 kts 63°
2026-04-20 15:20 35.91490 -5.46537 33971 ft 478 kts 63°
2026-04-20 15:21 35.94456 -5.39195 33971 ft 477 kts 63°
2026-04-20 15:21 35.97423 -5.31807 33975 ft 477 kts 63°
2026-04-20 15:22 36.00369 -5.24459 33980 ft 477 kts 63°
2026-04-20 15:22 36.03280 -5.17361 33980 ft 477 kts 62°
2026-04-20 15:23 36.06350 -5.10114 33975 ft 477 kts 62°
2026-04-20 15:23 36.09424 -5.02844 33974 ft 477 kts 62°
2026-04-20 15:24 36.12467 -4.95561 33973 ft 477 kts 63°
2026-04-20 15:24 36.15846 -4.88515 33960 ft 477 kts 51°
2026-04-20 15:25 36.20363 -4.82504 33963 ft 477 kts 46°
2026-04-20 15:25 36.24963 -4.76584 33966 ft 477 kts 46°
2026-04-20 15:26 36.29554 -4.70649 33961 ft 478 kts 46°
2026-04-20 15:26 36.34151 -4.64684 33965 ft 478 kts 46°
2026-04-20 15:27 36.38780 -4.58663 33969 ft 479 kts 46°
2026-04-20 15:27 36.43388 -4.52676 33971 ft 479 kts 46°
2026-04-20 15:28 36.47995 -4.46691 33968 ft 479 kts 46°
2026-04-20 15:28 36.52587 -4.40700 33966 ft 479 kts 46°
2026-04-20 15:29 36.57192 -4.34679 33960 ft 480 kts 47°
2026-04-20 15:29 36.61789 -4.28665 33955 ft 480 kts 47°
2026-04-20 15:30 36.66385 -4.22627 33965 ft 480 kts 47°
2026-04-20 15:30 36.70987 -4.16586 33972 ft 481 kts 47°
2026-04-20 15:31 36.75592 -4.10532 33975 ft 481 kts 47°
2026-04-20 15:31 36.80183 -4.04459 33976 ft 481 kts 47°
2026-04-20 15:32 36.84780 -3.98380 33970 ft 481 kts 47°
2026-04-20 15:32 36.89378 -3.92290 33969 ft 482 kts 47°
2026-04-20 15:33 36.93966 -3.86200 33964 ft 482 kts 47°
2026-04-20 15:33 36.98563 -3.80095 33975 ft 482 kts 47°
2026-04-20 15:34 37.03162 -3.73975 33970 ft 482 kts 47°
2026-04-20 15:34 37.07754 -3.67839 33966 ft 483 kts 47°
2026-04-20 15:35 37.11598 -3.62704 33965 ft 482 kts 46°
2026-04-20 15:35 37.16256 -3.56643 33973 ft 482 kts 45°
2026-04-20 15:36 37.20950 -3.50645 33974 ft 482 kts 45°
2026-04-20 15:36 37.25632 -3.44617 33972 ft 482 kts 45°
2026-04-20 15:37 37.30291 -3.38572 33974 ft 482 kts 45°
2026-04-20 15:37 37.34942 -3.32517 33963 ft 481 kts 45°
2026-04-20 15:38 37.39590 -3.26469 33953 ft 481 kts 45°
2026-04-20 15:38 37.44240 -3.20405 33947 ft 481 kts 46°
2026-04-20 15:39 37.48882 -3.14334 33937 ft 481 kts 45°
2026-04-20 15:39 37.53524 -3.08263 33937 ft 481 kts 45°
2026-04-20 15:40 37.58163 -3.02182 33936 ft 481 kts 45°
2026-04-20 15:40 37.62793 -2.96098 33943 ft 481 kts 45°
2026-04-20 15:41 37.67425 -2.89995 33944 ft 481 kts 45°
2026-04-20 15:41 37.72022 -2.83940 33945 ft 481 kts 45°
2026-04-20 15:42 37.76642 -2.77837 33956 ft 481 kts 45°
2026-04-20 15:42 37.81266 -2.71719 33954 ft 481 kts 45°
2026-04-20 15:43 37.85881 -2.65594 33975 ft 481 kts 45°
2026-04-20 15:43 37.90494 -2.59462 33978 ft 481 kts 45°
2026-04-20 15:44 37.95102 -2.53314 33973 ft 481 kts 45°
2026-04-20 15:44 37.99703 -2.47164 33972 ft 481 kts 45°
2026-04-20 15:45 38.04306 -2.41013 33972 ft 481 kts 45°
2026-04-20 15:45 38.08906 -2.34859 33971 ft 481 kts 45°
2026-04-20 15:46 38.13506 -2.28701 33972 ft 481 kts 45°
2026-04-20 15:46 38.18100 -2.22522 33976 ft 481 kts 46°
2026-04-20 15:47 38.22507 -2.16126 33968 ft 482 kts 51°
2026-04-20 15:47 38.26654 -2.09428 33966 ft 482 kts 51°
2026-04-20 15:48 38.30812 -2.02725 33965 ft 482 kts 51°
2026-04-20 15:48 38.34962 -1.96011 33958 ft 483 kts 51°
2026-04-20 15:49 38.39082 -1.89316 33967 ft 483 kts 51°
2026-04-20 15:49 38.43261 -1.82524 33958 ft 484 kts 51°
2026-04-20 15:50 38.47388 -1.75806 33964 ft 484 kts 51°
2026-04-20 15:50 38.51564 -1.68983 33953 ft 485 kts 51°
2026-04-20 15:51 38.55679 -1.62236 33957 ft 485 kts 51°
2026-04-20 15:51 38.59826 -1.55431 33958 ft 485 kts 51°
2026-04-20 15:52 38.63976 -1.48614 33962 ft 486 kts 51°
2026-04-20 15:52 38.68116 -1.41791 33969 ft 485 kts 51°
2026-04-20 15:53 38.74320 -1.31541 33961 ft 485 kts 51°
2026-04-20 15:53 38.78459 -1.24698 33958 ft 486 kts 51°
2026-04-20 15:54 38.82591 -1.17862 33957 ft 486 kts 51°
2026-04-20 15:54 38.86724 -1.10990 33950 ft 486 kts 51°
2026-04-20 15:55 38.90839 -1.04120 33941 ft 485 kts 51°
2026-04-20 15:55 38.94954 -0.97246 33930 ft 485 kts 51°
2026-04-20 15:56 38.99065 -0.90375 33929 ft 485 kts 51°
2026-04-20 15:56 39.03176 -0.83492 33919 ft 485 kts 51°
2026-04-20 15:57 39.07452 -0.76794 33920 ft 483 kts 42°
2026-04-20 15:57 39.12519 -0.71247 33927 ft 481 kts 37°
2026-04-20 15:58 39.17682 -0.65753 33930 ft 481 kts 37°
2026-04-20 15:58 39.22836 -0.60243 33936 ft 481 kts 37°
2026-04-20 15:59 39.27991 -0.54733 33948 ft 481 kts 37°
2026-04-20 15:59 39.33243 -0.49401 33946 ft 480 kts 34°
2026-04-20 16:00 39.38620 -0.44294 33959 ft 479 kts 33°
2026-04-20 16:00 39.43989 -0.39183 33958 ft 479 kts 33°
2026-04-20 16:01 39.49318 -0.33992 33958 ft 479 kts 34°
2026-04-20 16:01 39.54624 -0.28774 33969 ft 479 kts 34°
2026-04-20 16:02 39.59931 -0.23563 33959 ft 478 kts 34°
2026-04-20 16:02 39.65236 -0.18363 33961 ft 477 kts 34°
2026-04-20 16:03 39.70532 -0.13170 33965 ft 477 kts 34°
2026-04-20 16:03 39.75815 -0.07964 33960 ft 476 kts 34°
2026-04-20 16:04 39.81079 -0.02754 33966 ft 476 kts 34°
2026-04-20 16:04 39.85966 0.03082 33965 ft 479 kts 44°
2026-04-20 16:05 39.90522 0.09416 33970 ft 479 kts 44°
2026-04-20 16:05 39.95077 0.15756 33981 ft 479 kts 44°
2026-04-20 16:06 39.99622 0.22096 33982 ft 478 kts 44°
2026-04-20 16:06 40.04159 0.28443 33980 ft 478 kts 44°
2026-04-20 16:07 40.08671 0.34742 33982 ft 478 kts 44°
2026-04-20 16:07 40.13206 0.41090 33973 ft 478 kts 44°
2026-04-20 16:08 40.17730 0.47439 33969 ft 477 kts 44°
2026-04-20 16:08 40.22248 0.53800 33968 ft 477 kts 44°
2026-04-20 16:09 40.26763 0.60175 33969 ft 477 kts 44°
2026-04-20 16:09 40.31278 0.66552 33957 ft 477 kts 44°
2026-04-20 16:10 40.35789 0.72937 33960 ft 478 kts 44°
2026-04-20 16:10 40.40295 0.79346 33953 ft 478 kts 44°
2026-04-20 16:11 40.44806 0.85771 33954 ft 479 kts 44°
2026-04-20 16:11 40.49317 0.92201 33955 ft 479 kts 44°
2026-04-20 16:12 40.53827 0.98648 33961 ft 479 kts 44°
2026-04-20 16:12 40.58333 1.05093 33959 ft 479 kts 44°
2026-04-20 16:13 40.62829 1.11550 33966 ft 479 kts 44°
2026-04-20 16:13 40.67315 1.18018 33971 ft 478 kts 44°
2026-04-20 16:14 40.71802 1.24500 33974 ft 478 kts 44°
2026-04-20 16:14 40.76280 1.30969 33977 ft 478 kts 44°
2026-04-20 16:15 40.80766 1.37459 33976 ft 478 kts 44°
2026-04-20 16:15 40.85006 1.43614 33973 ft 478 kts 44°
2026-04-20 16:16 40.89517 1.50172 33974 ft 478 kts 44°
2026-04-20 16:16 40.93985 1.56682 33976 ft 478 kts 44°
2026-04-20 16:17 40.98426 1.63165 33977 ft 478 kts 44°
2026-04-20 16:17 41.02886 1.69686 33969 ft 478 kts 44°
2026-04-20 16:18 41.07311 1.76184 33972 ft 478 kts 44°
2026-04-20 16:18 41.11753 1.82726 33971 ft 478 kts 44°
2026-04-20 16:19 41.16201 1.89275 33975 ft 478 kts 45°
2026-04-20 16:19 41.20646 1.95841 33975 ft 478 kts 45°
2026-04-20 16:20 41.25084 2.02415 33978 ft 478 kts 45°
2026-04-20 16:20 41.29515 2.08996 33975 ft 478 kts 45°
2026-04-20 16:21 41.33393 2.16220 33980 ft 481 kts 54°
2026-04-20 16:21 41.37042 2.23686 33973 ft 481 kts 54°
2026-04-20 16:22 41.40072 2.29905 33971 ft 481 kts 54°
2026-04-20 16:22 41.43711 2.37392 33972 ft 481 kts 54°
2026-04-20 16:23 41.47346 2.44887 33976 ft 481 kts 54°
2026-04-20 16:23 41.50980 2.52386 33982 ft 482 kts 54°
2026-04-20 16:24 41.54610 2.59889 33978 ft 481 kts 54°
2026-04-20 16:24 41.58227 2.67402 33975 ft 481 kts 54°
2026-04-20 16:25 41.61834 2.74920 33974 ft 481 kts 54°
2026-04-20 16:25 41.65441 2.82446 33970 ft 481 kts 54°
2026-04-20 16:26 41.69049 2.89971 33969 ft 480 kts 54°
2026-04-20 16:26 41.72647 2.97502 33965 ft 481 kts 54°
2026-04-20 16:27 41.76240 3.05056 33964 ft 481 kts 54°
2026-04-20 16:27 41.79825 3.12618 33958 ft 481 kts 54°
2026-04-20 16:28 41.83408 3.20195 33954 ft 481 kts 54°
2026-04-20 16:28 41.86990 3.27781 33956 ft 481 kts 55°
2026-04-20 16:29 41.90570 3.35378 33953 ft 482 kts 55°
2026-04-20 16:29 41.94146 3.42988 33956 ft 482 kts 55°
2026-04-20 16:30 41.97719 3.50630 33951 ft 483 kts 55°
2026-04-20 16:30 42.01268 3.58216 33951 ft 483 kts 55°
2026-04-20 16:31 42.04837 3.65861 33952 ft 483 kts 55°
2026-04-20 16:31 42.08399 3.73533 33940 ft 483 kts 55°
2026-04-20 16:32 42.11961 3.81211 33957 ft 483 kts 55°
2026-04-20 16:32 42.15525 3.88891 33936 ft 484 kts 55°
2026-04-20 16:33 42.19086 3.96591 33946 ft 484 kts 55°
2026-04-20 16:33 42.22639 4.04307 33950 ft 484 kts 55°
2026-04-20 16:34 42.26184 4.12040 33948 ft 485 kts 55°
2026-04-20 16:34 42.29727 4.19782 33953 ft 485 kts 55°
2026-04-20 16:35 42.33272 4.27548 33952 ft 486 kts 55°
2026-04-20 16:35 42.36816 4.35325 33956 ft 486 kts 55°
2026-04-20 16:36 42.40361 4.43122 33951 ft 487 kts 55°
2026-04-20 16:36 42.43907 4.50934 33950 ft 487 kts 55°
2026-04-20 16:37 42.47446 4.58765 33946 ft 488 kts 54°
2026-04-20 16:37 42.50988 4.66620 33940 ft 489 kts 54°
2026-04-20 16:38 42.54523 4.74498 33948 ft 489 kts 54°
2026-04-20 16:38 42.58031 4.82350 33950 ft 490 kts 54°
2026-04-20 16:39 42.61570 4.90255 33944 ft 491 kts 54°
2026-04-20 16:39 42.65120 4.98185 33941 ft 491 kts 54°
2026-04-20 16:40 42.68654 5.06135 33941 ft 492 kts 54°
2026-04-20 16:40 42.72180 5.14107 33937 ft 492 kts 54°
2026-04-20 16:41 42.75709 5.22094 33937 ft 493 kts 54°
2026-04-20 16:41 42.79250 5.30084 33935 ft 493 kts 54°
2026-04-20 16:42 42.82785 5.38091 33933 ft 493 kts 54°
2026-04-20 16:42 42.86302 5.46127 33932 ft 494 kts 54°
2026-04-20 16:43 42.89814 5.54173 33931 ft 494 kts 54°
2026-04-20 16:43 42.93322 5.62225 33931 ft 494 kts 54°
2026-04-20 16:44 42.96830 5.70281 33928 ft 494 kts 54°
2026-04-20 16:44 43.00330 5.78346 33914 ft 495 kts 56°
2026-04-20 16:45 43.03002 5.87094 33909 ft 501 kts 66°
2026-04-20 16:45 43.05357 5.96057 33901 ft 501 kts 66°
2026-04-20 16:46 43.07710 6.05015 33903 ft 501 kts 66°
2026-04-20 16:46 43.10048 6.13988 33901 ft 500 kts 66°
2026-04-20 16:47 43.12377 6.22961 33909 ft 500 kts 66°
2026-04-20 16:47 43.14694 6.31915 33907 ft 500 kts 66°
2026-04-20 16:48 43.17011 6.40885 33909 ft 499 kts 66°
2026-04-20 16:48 43.19315 6.49864 33908 ft 500 kts 66°
2026-04-20 16:49 43.21743 6.58762 33901 ft 495 kts 59°
2026-04-20 16:49 43.25373 6.66652 33903 ft 486 kts 48°
2026-04-20 16:50 43.29370 6.74151 33906 ft 487 kts 48°
2026-04-20 16:50 43.33342 6.81690 33920 ft 488 kts 49°
2026-04-20 16:51 43.37306 6.89259 33918 ft 488 kts 49°
2026-04-20 16:51 43.41276 6.96834 33919 ft 488 kts 49°
2026-04-20 16:52 43.45253 7.04420 33915 ft 489 kts 49°
2026-04-20 16:52 43.49199 7.11975 33915 ft 490 kts 49°
2026-04-20 16:53 43.53167 7.19603 33921 ft 490 kts 49°
2026-04-20 16:53 43.57134 7.27240 33921 ft 490 kts 49°
2026-04-20 16:54 43.61102 7.34885 33924 ft 490 kts 49°
2026-04-20 16:54 43.65063 7.42558 33926 ft 491 kts 49°
2026-04-20 16:55 43.69010 7.50245 33928 ft 491 kts 49°
2026-04-20 16:55 43.72964 7.57949 33933 ft 491 kts 49°
2026-04-20 16:56 43.76915 7.65660 33936 ft 492 kts 49°
2026-04-20 16:56 43.80867 7.73392 33942 ft 492 kts 49°
2026-04-20 16:57 43.84815 7.81133 33945 ft 492 kts 49°
2026-04-20 16:57 43.88777 7.88873 33940 ft 492 kts 49°
2026-04-20 16:58 43.92728 7.96621 33945 ft 492 kts 48°
2026-04-20 16:58 43.96675 8.04397 33955 ft 493 kts 49°
2026-04-20 16:59 44.00621 8.12189 33946 ft 493 kts 49°
2026-04-20 16:59 44.04567 8.20005 33953 ft 494 kts 49°
2026-04-20 17:00 44.10134 8.32070 33945 ft 499 kts 53°
2026-04-20 17:01 44.13602 8.40444 33946 ft 500 kts 54°
2026-04-20 17:01 44.17093 8.48810 33949 ft 499 kts 53°
2026-04-20 17:02 44.20645 8.57100 33947 ft 498 kts 53°
2026-04-20 17:02 44.24209 8.65365 33950 ft 497 kts 53°
2026-04-20 17:03 44.27750 8.73643 33960 ft 497 kts 54°
2026-04-20 17:03 44.31270 8.81941 33969 ft 496 kts 54°
2026-04-20 17:04 44.35232 8.89706 33972 ft 488 kts 45°
2026-04-20 17:04 44.39502 8.97071 33967 ft 487 kts 45°
2026-04-20 17:05 44.43760 9.04429 33970 ft 486 kts 46°
2026-04-20 17:05 44.47991 9.11774 33970 ft 485 kts 46°
2026-04-20 17:06 44.52210 9.19137 33960 ft 484 kts 46°
2026-04-20 17:06 44.56409 9.26480 33946 ft 482 kts 46°
2026-04-20 17:07 44.60606 9.33831 33914 ft 483 kts 47°
2026-04-20 17:07 44.64813 9.41200 33906 ft 484 kts 47°
2026-04-20 17:08 44.69007 9.48567 33897 ft 484 kts 47°
2026-04-20 17:08 44.73200 9.55971 33891 ft 483 kts 47°
2026-04-20 17:09 44.77378 9.63361 33888 ft 483 kts 47°
2026-04-20 17:09 44.81521 9.70717 33883 ft 482 kts 47°
2026-04-20 17:10 44.85685 9.78115 33884 ft 482 kts 47°
2026-04-20 17:10 44.89842 9.85534 33888 ft 482 kts 47°
2026-04-20 17:11 44.93312 9.91756 33892 ft 482 kts 48°
2026-04-20 17:11 44.97447 9.99190 33902 ft 481 kts 48°
2026-04-20 17:12 45.01579 10.06610 33909 ft 480 kts 48°
2026-04-20 17:12 45.05795 10.13894 33912 ft 478 kts 45°
2026-04-20 17:13 45.10160 10.20905 33908 ft 478 kts 44°
2026-04-20 17:13 45.14569 10.27947 33908 ft 478 kts 45°
2026-04-20 17:14 45.18924 10.35071 33902 ft 479 kts 46°
2026-04-20 17:14 45.23250 10.42248 33904 ft 479 kts 46°
2026-04-20 17:15 45.27584 10.49438 33900 ft 479 kts 46°
2026-04-20 17:15 45.31928 10.56635 33893 ft 480 kts 46°
2026-04-20 17:16 45.36269 10.63851 33893 ft 481 kts 46°
2026-04-20 17:16 45.40444 10.71305 33886 ft 483 kts 50°
2026-04-20 17:17 45.44413 10.79040 33885 ft 484 kts 51°
2026-04-20 17:17 45.48362 10.86808 33885 ft 484 kts 50°
2026-04-20 17:18 45.52372 10.94528 33888 ft 485 kts 50°
2026-04-20 17:18 45.56412 11.02238 33899 ft 486 kts 50°
2026-04-20 17:19 45.60449 11.09977 33914 ft 486 kts 50°
2026-04-20 17:19 45.64469 11.17746 33923 ft 486 kts 50°
2026-04-20 17:20 45.68480 11.25541 33941 ft 486 kts 50°
2026-04-20 17:20 45.72485 11.33337 33942 ft 486 kts 50°
2026-04-20 17:21 45.76494 11.41140 33948 ft 486 kts 50°
2026-04-20 17:21 45.80495 11.48947 33948 ft 486 kts 50°
2026-04-20 17:22 45.84496 11.56788 33955 ft 487 kts 50°
2026-04-20 17:22 45.88486 11.64635 33951 ft 487 kts 50°
2026-04-20 17:23 45.92475 11.72503 33942 ft 487 kts 50°
2026-04-20 17:23 45.96468 11.80379 33935 ft 488 kts 50°
2026-04-20 17:24 46.00455 11.88263 33927 ft 488 kts 50°
2026-04-20 17:24 46.04441 11.96179 33913 ft 488 kts 50°
2026-04-20 17:25 46.08415 12.04108 33912 ft 488 kts 50°
2026-04-20 17:25 46.12386 12.12051 33913 ft 489 kts 50°
2026-04-20 17:26 46.16360 12.20016 33913 ft 489 kts 50°
2026-04-20 17:26 46.20330 12.27996 33918 ft 489 kts 50°
2026-04-20 17:27 46.24298 12.35991 33916 ft 490 kts 50°
2026-04-20 17:27 46.28233 12.43940 33914 ft 489 kts 50°
2026-04-20 17:28 46.32196 12.51966 33894 ft 488 kts 48°
2026-04-20 17:28 46.36120 12.59958 33884 ft 488 kts 48°
2026-04-20 17:29 46.40061 12.67972 33900 ft 489 kts 49°
2026-04-20 17:29 46.43993 12.76014 33914 ft 490 kts 49°
2026-04-20 17:30 46.47924 12.84083 33930 ft 490 kts 49°
2026-04-20 17:30 46.51856 12.92169 33939 ft 490 kts 49°
2026-04-20 17:31 46.55776 13.00254 33945 ft 489 kts 50°
2026-04-20 17:31 46.59693 13.08348 33961 ft 489 kts 50°
2026-04-20 17:32 46.63608 13.16460 33968 ft 490 kts 50°
2026-04-20 17:32 46.67523 13.24594 33978 ft 491 kts 50°
2026-04-20 17:33 46.70821 13.33251 33986 ft 497 kts 58°
2026-04-20 17:33 46.74003 13.42200 33993 ft 498 kts 58°
2026-04-20 17:34 46.77189 13.51165 33999 ft 498 kts 58°
2026-04-20 17:34 46.80344 13.60096 34000 ft 498 kts 58°
2026-04-20 17:35 46.83499 13.69098 34004 ft 498 kts 58°
2026-04-20 17:35 46.86658 13.78100 34006 ft 498 kts 57°
2026-04-20 17:36 46.89823 13.87118 34000 ft 499 kts 57°
2026-04-20 17:36 46.92975 13.96164 34008 ft 500 kts 58°
2026-04-20 17:37 46.96130 14.05240 34012 ft 501 kts 57°
2026-04-20 17:37 46.99288 14.14326 34012 ft 501 kts 57°
2026-04-20 17:38 47.02438 14.23441 34018 ft 501 kts 57°
2026-04-20 17:38 47.05571 14.32578 34012 ft 502 kts 57°
2026-04-20 17:39 47.08703 14.41736 34008 ft 503 kts 57°
2026-04-20 17:39 47.11589 14.51114 33982 ft 510 kts 67°
2026-04-20 17:40 47.13395 14.61248 33973 ft 513 kts 71°
2026-04-20 17:40 47.15136 14.71416 33973 ft 514 kts 71°
2026-04-20 17:41 47.16881 14.81603 33960 ft 514 kts 71°
2026-04-20 17:41 47.18618 14.91800 33980 ft 515 kts 71°
2026-04-20 17:42 47.20341 15.02027 33988 ft 516 kts 71°
2026-04-20 17:42 47.22042 15.12148 33995 ft 516 kts 71°
2026-04-20 17:43 47.23752 15.22336 34003 ft 516 kts 71°
2026-04-20 17:43 47.25464 15.32696 33718 ft 519 kts 71°
2026-04-20 17:43 47.26312 15.37856 33341 ft 519 kts 71°
2026-04-20 17:44 47.27163 15.43041 32019 ft 526 kts 71°
2026-04-20 17:44 47.28029 15.48304 30762 ft 531 kts 71°
2026-04-20 17:44 47.28782 15.52898 29547 ft 536 kts 71°
2026-04-20 17:44 47.29668 15.58328 28111 ft 538 kts 72°
2026-04-20 17:45 47.30528 15.63633 26694 ft 540 kts 72°
2026-04-20 17:45 47.31410 15.69093 25237 ft 541 kts 72°
2026-04-20 17:45 47.32268 15.74420 23912 ft 541 kts 73°
2026-04-20 17:45 47.33124 15.79772 22876 ft 532 kts 73°
2026-04-20 17:46 47.33959 15.85034 21925 ft 521 kts 74°
2026-04-20 17:46 47.34772 15.90137 20497 ft 504 kts 73°
2026-04-20 17:46 47.35925 15.94903 19341 ft 483 kts 60°
2026-04-20 17:46 47.37600 15.99051 18515 ft 465 kts 50°
2026-04-20 17:47 47.39715 16.02601 17606 ft 456 kts 38°
2026-04-20 17:47 47.42075 16.05615 16599 ft 441 kts 35°
2026-04-20 17:47 47.44419 16.08439 15393 ft 428 kts 34°
2026-04-20 17:47 47.46724 16.11115 14268 ft 416 kts 33°
2026-04-20 17:48 47.48980 16.13699 13222 ft 403 kts 33°
2026-04-20 17:48 47.51115 16.16153 12885 ft 374 kts 34°
2026-04-20 17:48 47.53080 16.18443 12714 ft 345 kts 34°
2026-04-20 17:48 47.54884 16.20573 12552 ft 320 kts 34°
2026-04-20 17:49 47.56582 16.22586 12082 ft 308 kts 34°
2026-04-20 17:49 47.58239 16.24548 11450 ft 303 kts 33°
2026-04-20 17:49 47.59878 16.26486 10809 ft 299 kts 33°
2026-04-20 17:49 47.61492 16.28399 10252 ft 294 kts 34°
2026-04-20 17:50 47.63075 16.30277 10015 ft 292 kts 33°
2026-04-20 17:50 47.64652 16.32152 9698 ft 289 kts 34°
2026-04-20 17:50 47.66217 16.34017 9315 ft 287 kts 34°
2026-04-20 17:50 47.67765 16.35863 8967 ft 284 kts 34°
2026-04-20 17:51 47.69302 16.37697 8529 ft 283 kts 34°
2026-04-20 17:51 47.70832 16.39522 8135 ft 281 kts 34°
2026-04-20 17:51 47.72346 16.41332 7746 ft 278 kts 35°
2026-04-20 17:51 47.73640 16.42877 7406 ft 277 kts 34°
2026-04-20 17:52 47.75138 16.44668 7036 ft 275 kts 35°
2026-04-20 17:52 47.76625 16.46446 6661 ft 273 kts 35°
2026-04-20 17:52 47.78095 16.48203 6179 ft 269 kts 35°
2026-04-20 17:52 47.78704 16.48931 5900 ft 268 kts 36°
2026-04-20 17:53 47.79720 16.50148 5449 ft 267 kts 36°
2026-04-20 17:53 47.81160 16.51876 5060 ft 264 kts 36°
2026-04-20 17:54 47.82579 16.53589 4665 ft 262 kts 36°
2026-04-20 17:54 47.83986 16.55280 4302 ft 257 kts 36°
2026-04-20 17:54 47.85346 16.56908 4162 ft 244 kts 36°
2026-04-20 17:54 47.86638 16.58454 4002 ft 233 kts 36°
2026-04-20 17:55 47.87866 16.59934 3880 ft 221 kts 36°
2026-04-20 17:55 47.89033 16.61353 3746 ft 212 kts 36°
2026-04-20 17:55 47.90152 16.62724 3609 ft 205 kts 36°
2026-04-20 17:55 47.90871 16.63603 3520 ft 199 kts 36°
2026-04-20 17:56 47.91967 16.64791 3389 ft 190 kts 24°
2026-04-20 17:56 47.93202 16.65336 3260 ft 183 kts
2026-04-20 17:56 47.94459 16.65199 3115 ft 181 kts 344°
2026-04-20 17:56 47.95671 16.64690 3010 ft 179 kts 343°
2026-04-20 17:57 47.97153 16.64065 2941 ft 159 kts 344°
2026-04-20 17:57 47.98192 16.63628 2798 ft 152 kts 344°
2026-04-20 17:57 47.98880 16.63340 2676 ft 151 kts 344°
2026-04-20 17:57 47.99879 16.62918 2473 ft 148 kts 344°
2026-04-20 17:58 48.00858 16.62507 2270 ft 144 kts 344°
2026-04-20 17:58 48.01805 16.62107 2078 ft 139 kts 344°
2026-04-20 17:58 48.02708 16.61727 1894 ft 131 kts 344°
2026-04-20 17:58 48.03582 16.61362 1783 ft 130 kts 343°
2026-04-20 17:59 48.04453 16.60997 1585 ft 130 kts 343°
2026-04-20 17:59 48.05323 16.60633 1390 ft 131 kts 343°
2026-04-20 17:59 48.06192 16.60263 1188 ft 130 kts 343°
2026-04-20 17:59 48.07067 16.59897 1016 ft 132 kts 344°
2026-04-20 18:00 48.07951 16.59521 821 ft 131 kts 345°
2026-04-20 18:00 48.08814 16.59155 654 ft 130 kts 345°
2026-04-20 18:00 48.09563 16.58838 616 ft 104 kts 344°
2026-04-20 18:00 48.10157 16.58588 613 ft 79 kts 344°
2026-04-20 18:01 48.10633 16.58387 617 ft 64 kts 344°
2026-04-20 18:01 48.10905 16.58271 624 ft 31 kts 342°
2026-04-20 18:01 48.11044 16.58064 616 ft 25 kts 296°
2026-04-20 18:01 48.11095 16.57907 619 ft 16 kts 296°
2026-04-20 18:02 48.11145 16.57751 618 ft 18 kts 296°
2026-04-20 18:02 48.11203 16.57577 616 ft 20 kts 296°
2026-04-20 18:02 48.11267 16.57381 614 ft 22 kts 296°
2026-04-20 18:02 48.11342 16.57147 613 ft 28 kts 296°
2026-04-20 18:03 48.11431 16.56878 622 ft 27 kts 296°
2026-04-20 18:03 48.11512 16.56627 614 ft 28 kts 294°
2026-04-20 18:03 48.11583 16.56409 614 ft 10 kts 296°
2026-04-20 18:03 48.11625 16.56281 616 ft 18 kts 296°
2026-04-20 18:04 48.11688 16.56088 624 ft 20 kts 295°
2026-04-20 18:04 48.11735 16.55942 621 ft 16 kts 295°
2026-04-20 18:04 48.11794 16.55760 614 ft 24 kts 296°
2026-04-20 18:04 48.11873 16.55518 614 ft 28 kts 295°
2026-04-20 18:05 48.12031 16.55199 610 ft 15 kts 26°
2026-04-20 18:05 48.12073 16.55207 613 ft 2 kts 302°
2026-04-20 18:05 48.12079 16.55197 610 ft 4 kts 310°
2026-04-20 18:06 48.12094 16.55158 614 ft 0 kts 296°
2026-04-20 18:06 48.12096 16.55153 615 ft 0 kts 298°